EST,Max TemperatureF,Mean TemperatureF,Min TemperatureF,Max Dew PointF,MeanDew PointF,Min DewpointF,Max Humidity, Mean Humidity, Min Humidity, Max Sea Level PressureIn, Mean Sea Level PressureIn, Min Sea Level PressureIn, Max VisibilityMiles, Mean VisibilityMiles, Min VisibilityMiles, Max Wind SpeedMPH, Mean Wind SpeedMPH, Max Gust SpeedMPH,PrecipitationIn, CloudCover, Events, WindDirDegrees
2013-12-1,59,42,24,35,27,22,88,64,40,30.34,30.18,30.02,10,10,10,12,3,14,0.00,0,,333
2013-12-2,55,42,28,41,34,27,92,73,54,30.00,29.90,29.81,10,10,5,7,1,10,0.00,7,,134
2013-12-3,56,48,39,49,44,39,96,84,72,29.96,29.89,29.84,10,8,0,16,4,20,T,7,Fog-Rain,178
2013-12-4,66,58,50,56,51,48,100,82,63,30.09,29.99,29.93,10,5,0,17,5,23,0.00,7,Fog,162
2013-12-5,70,63,56,63,59,55,100,87,73,30.11,30.04,29.99,10,8,2,16,6,22,0.38,7,Rain,162
2013-12-6,70,60,50,63,60,49,100,87,73,30.08,29.99,29.93,10,8,2,25,11,31,0.58,8,Rain,182
2013-12-7,51,46,40,48,39,36,100,83,66,30.36,30.24,30.02,10,9,2,28,12,33,T,6,Rain,348
2013-12-8,43,39,34,38,36,33,100,91,82,30.35,30.30,30.20,10,6,2,16,8,20,0.41,8,Rain,159
2013-12-9,53,44,34,52,44,33,100,90,80,30.21,30.10,30.01,10,8,3,17,8,23,0.54,8,Rain,342
2013-12-10,47,37,26,45,36,21,100,80,60,30.32,30.05,29.91,10,9,4,28,12,36,0.22,5,Rain,348
2013-12-11,50,37,23,26,19,12,81,53,24,30.44,30.35,30.29,10,10,10,12,4,16,0.00,0,,342
2013-12-12,39,32,24,20,15,6,75,51,27,30.42,30.37,30.30,10,10,10,21,11,28,0.00,0,,342
2013-12-13,49,35,20,23,17,14,77,53,29,30.38,30.31,30.23,10,10,10,8,3,10,0.00,1,,171
2013-12-14,41,38,35,41,35,24,100,77,54,30.22,29.96,29.78,10,6,0,8,4,13,0.85,7,Fog-Rain,171
2013-12-15,43,36,29,41,32,24,93,79,64,30.13,29.91,29.75,10,8,1,23,14,32,T,5,Rain,349
2013-12-16,56,41,25,28,25,20,92,58,24,30.19,30.14,30.09,10,10,9,12,6,18,0.00,0,,328
2013-12-17,62,44,26,31,26,19,92,59,25,30.15,30.06,29.95,10,10,10,24,8,37,0.00,0,,309
2013-12-18,47,37,27,22,15,6,69,44,19,30.31,30.22,30.06,10,10,10,21,8,29,0.00,0,,345
2013-12-19,63,43,23,28,23,17,81,53,25,30.34,30.27,30.18,10,10,10,16,4,21,0.00,0,,163
2013-12-20,63,50,37,47,32,24,77,53,29,30.23,30.16,30.09,10,10,10,17,7,21,0.00,2,,174
2013-12-21,65,59,52,61,55,47,100,89,77,30.13,30.05,29.96,10,6,2,21,8,28,0.65,8,Rain,168
2013-12-22,65,61,56,63,57,55,100,89,78,30.10,30.02,29.92,10,5,1,21,7,29,2.80,8,Rain,185
2013-12-23,57,46,34,55,43,28,100,86,71,30.21,30.10,30.00,10,10,6,25,12,33,0.24,6,Rain,349
2013-12-24,34,29,23,27,21,13,82,67,51,30.42,30.30,30.21,10,10,10,25,14,32,0.00,3,,354
2013-12-25,38,28,18,18,14,8,92,62,32,30.50,30.41,30.35,10,10,10,12,2,16,0.00,0,,148
2013-12-26,48,35,21,23,20,15,84,61,37,30.37,30.32,30.26,10,10,10,20,8,23,0.00,0,,347
2013-12-27,50,36,22,26,22,20,92,62,31,30.48,30.41,30.35,10,10,8,12,2,15,0.00,0,,337
2013-12-28,46,34,21,37,28,19,100,77,53,30.44,30.32,30.11,10,9,5,13,2,17,0.23,4,Rain,166
2013-12-29,53,45,37,44,38,34,100,83,66,30.08,29.90,29.82,10,8,2,22,10,28,0.77,6,Rain,320
2013-12-30,44,39,34,37,34,30,89,81,73,30.14,30.07,29.98,10,10,10,20,10,24,0.00,6,,344
2013-12-31,41,34,26,30,22,16,89,65,40,30.38,30.28,30.14,10,10,10,21,9,28,0.00,1,,341